Date,TemperatureHighF,TemperatureAvgF,TemperatureLowF,DewpointHighF,DewpointAvgF,DewpointLowF,HumidityHigh,HumidityAvg,HumidityLow,PressureMaxIn,PressureMinIn,WindSpeedMaxMPH,WindSpeedAvgMPH,GustSpeedMaxMPH,PrecipitationSumIn
2013-9-1,79.2,70.8,63.7,62.1,58.6,52.2,86,66,51,29.98,29.71,8,2,10,0.00
2013-9-2,92.3,74.6,56.7,58.9,54.9,45.3,94,56,21,30.00,29.59,5,1,11,0.00
2013-9-3,95.2,79.4,65.8,59.0,53.6,47.2,75,44,23,29.86,29.53,14,3,16,0.00
2013-9-4,92.1,78.0,67.6,61.1,55.4,48.7,73,48,25,30.08,29.66,10,1,14,0.00
2013-9-5,95.7,77.0,63.9,60.6,54.5,46.8,66,48,22,30.08,29.54,13,2,20,0.03
2013-9-6,97.7,78.5,59.9,56.6,51.0,35.9,75,44,12,30.01,29.47,11,2,17,0.00
2013-9-7,94.8,77.1,59.0,58.0,49.1,33.0,83,44,13,30.01,29.57,9,2,13,0.00
2013-9-8,91.4,74.5,57.2,55.0,51.3,46.7,80,48,23,29.95,29.45,11,2,13,0.00
2013-9-9,84.4,67.7,58.1,62.1,56.5,53.0,99,71,34,29.88,29.53,27,3,29,0.46
2013-9-10,68.2,61.6,59.4,62.6,60.5,59.1,99,96,79,30.07,29.84,6,1,11,0.32
2013-9-11,71.1,62.9,60.1,66.5,61.8,59.8,99,96,74,30.07,30.01,11,2,11,0.40
2013-9-12,65.3,61.6,59.2,64.2,60.9,58.9,99,98,94,30.17,30.04,9,3,13,1.44
2013-9-13,79.2,64.8,58.5,64.5,60.4,58.2,99,88,49,30.05,29.65,10,2,11,0.14
2013-9-14,77.2,64.9,59.7,62.7,59.0,52.9,99,83,49,29.83,29.67,15,2,21,0.00
2013-9-15,61.5,58.3,55.6,59.1,57.3,55.3,99,96,87,30.20,29.83,10,2,11,0.40
2013-9-16,77.7,63.1,55.0,59.5,56.6,54.2,99,82,48,30.17,29.79,7,1,8,0.02
2013-9-17,86.0,69.2,51.4,56.4,46.7,35.3,96,52,17,29.98,29.52,7,2,11,0.00
2013-9-18,86.0,70.5,57.2,53.5,47.6,40.6,77,47,24,29.87,29.55,14,3,17,0.00
2013-9-19,67.6,60.9,51.1,48.1,44.0,34.5,81,54,37,30.05,29.71,10,2,11,0.00
2013-9-20,75.6,60.2,47.8,49.1,46.4,41.1,94,64,31,30.17,29.83,5,1,9,0.00
2013-9-21,73.4,54.0,0.0,48.1,45.7,43.6,90,74,36,30.03,29.87,5,1,8,0.00
2013-9-22,80.4,64.9,51.8,54.1,46.8,41.0,94,55,28,30.05,29.77,19,3,23,0.05
2013-9-23,68.0,58.6,49.8,54.4,38.8,27.4,99,55,24,30.33,29.82,24,6,34,0.61
2013-9-24,80.1,61.3,44.6,41.8,33.8,25.7,64,39,16,30.56,30.05,7,2,8,0.00
2013-9-25,86.7,65.8,42.8,44.9,34.9,25.1,79,39,13,30.17,29.63,15,3,24,0.00
2013-9-26,70.7,58.7,44.8,49.2,44.8,34.9,88,61,35,30.15,29.74,8,2,10,0.00
2013-9-27,53.1,47.9,40.6,52.3,47.2,40.4,99,97,83,30.47,29.96,8,2,9,0.21
2013-9-28,70.2,51.5,35.1,40.9,33.2,22.5,99,58,18,30.66,30.34,9,2,11,0.02
2013-9-29,78.6,58.6,39.6,41.5,33.7,22.1,86,47,15,30.44,30.06,12,2,12,0.00
2013-9-30,84.2,66.4,53.2,47.2,39.7,33.1,58,40,19,30.21,29.84,7,2,10,0.00